User: anonymous   Login
Location: ????????
(55.3155°N, 39.2900°E)
Time: 16:17:32
(UTC+00:00)
Language:

NOSS 2-2 (E) - Orbit

View from above orbital plane
View from above orbital plane
View from above satellite
View from above satellite

Ground track
Ground track

The orbit data is extracted from the following two-line orbital elements,

1 21809U 91076E   24165.90491247  .00003094  00000-0  32296-3 0  9998
2 21809  63.3073 304.1924 0903506  61.0765 307.7837 13.48723032  5053
Epoch (UTC): 13 June 2024 21:43:04
Eccentricity: 0.0903506
inclination: 63.3073°
perigee height: 403 km
apogee height: 1750 km
right ascension of ascending node: 304.1924°
argument of perigee: 61.0765°
revolutions per day: 13.48723032
mean anomaly at epoch: 307.7837°
orbit number at epoch: 505

The dashed part of the orbit path shows where the satellite is in the earth's shadow,  

DLR